* Astronomy
Members Login
Username
Password
Login
Remember Me
New Member
Lost Account Info?
Main Page
Search
Search
Advanced Search
Links
Blob on twitter
Chat
Chat Room
Search
Newspaper
Wiki
Help
FAQ
More?
AstroForum
NASA TV
Streaming video by Ustream
NASA TV Audio
NASA Media Channel
ISS Live webcam stream
User Details
Star Map
Calendar
Arcade
Recent Posts
Home
->
Astronomy News
->
Asteroids 2018
->
Asteroid A/2018 F4
Start A New Topic
Reply
Post Info
TOPIC: Asteroid A/2018 F4
Blobrana
L
Posts: 131433
Date:
Mar 28 21:27 2018
Asteroid A/2018 F4
Permalink
Printer Friendly
Orbital Elements at Epoch 2458200.5 (2018-Mar-23.0) TDB
Reference: JPL 1 (heliocentric ecliptic J2000)
Element
Value
Uncertainty (1-sigma)
Units
e
1.056229275005864
0.097027
a
-60.85396840329303
105.78
au
q
3.421774524546919
0.050204
au
i
79.23469514882215
1.7004
deg
node
26.50717976928077
0.019239
deg
peri
262.5458882360333
0.97565
deg
M
-1.263503141494575
3.2487
deg
t
p
2458809.063091058822
(2019-Nov-21.56309106)
22.128
JED
period
n/a
n/a
n/a
n/a
d
yr
n
.002076207315327391
0.0054136
deg/d
Q
n/a
n/a
au
Orbit Determination Parameters
# obs. used (total)
66
data-arc span
11 days
first obs. used
2018-03-17
last obs. used
2018-03-28
planetary ephem.
DE431
SB-pert. ephem.
SB431-N16
fit RMS
.53506
data source
ORB
producer
Otto Matic
solution date
2018-Mar-28 09:14:04
Additional Information
Earth MOID
= 3.14165 au
Jupiter MOID
= .615659 au
See more
__________________
Page 1 of 1
sorted by
Oldest First
Newest First
Quick Reply
Please log in to post quick replies.
Home
->
Astronomy News
->
Asteroids 2018
->
Asteroid A/2018 F4
Subscribe
Jump To:
--- News ---
Stars/galaxy News
Physics News
Comets
Earthquakes
Meetings
Galaxies
Weather
Stars
Missile
Satellite Re-entry
Neptune
Deimos
Venus
Saturn
Asteroids 2012
Meteors 2012
Meteorites 2012
Plutinos
Meteorites 2014
Comets 2014
Solar 2014
May
Historical Calendar
Comets 2015
October
Comets 2016
Asteroids 2018
Solar 2018
Meteors 2018
UFOs 2018
Astronomy News
Meteorite News
Mission News
Cosmology News
Events
Solar System
Earth
Exoplanets
Satellites
Supernovae
Space missions
Volcano
Uranus
Mercury
Pluto
UFOs 2012
Phobos
Meteors 2013
UFOs 2013
Comets 2013
Meteors 2014
Asteroids 2014
UFO 2014
Meteors 2015
November
December
UFOs 2015
April
July
August
Meteorites 2016
UFOs 2016
Asteroids 2016
General news
Asteroids 2017
Meteorites 2017
Comets 2017
Meteors 2017
UFOs 2017
UFOs
Asteroids
Solar
Observatories
Gamma-ray burst
Exhibition
Chemistry
Meteors
Mars
Jupiter
The Moon
Meteorites
Asteroids 2013
Meteorites 2013
Solar 2013
Sun
Solar 2015
Asteroids 2015
September
January
February
Meteorites 2015
March
June
Meteors 2016
Solar 2016
Solar 2017
Comets 2018
Meteorites 2018
--- Dropzone ---
Computers
Software
Cameras
Telescopes
Moon 2018
Observations
Moon 2017
Binoculars
Eyepiece
Moon 2016
App:roved
--- Media ---
Videos
Music
Audio Visual
YouTube
Art gallery
KMZ
Escape pod
Books
--- Coffee house ---
The Bazaar
Off Topic
All queries go here
Trash
Links
People
--- Agora ---
Blog
Forum help
Banned
Feedback
Test
Create your own FREE Forum
Report Abuse